Roseburg, OR

11:58 PM PST on November 16, 2019 (GMT -0800)
Roseburg Regional

Weather History for KRBG - July, 2019

Change the Weather History Date:

Monday, July 22, 2019

  Actual Average Record
Temperature  
Mean Temperature 73 °F 71 °F  
Max Temperature 89 °F 86 °F 106 °F (2006)
Min Temperature 57 °F 57 °F 45 °F (1934)
Degree Days  
Heating Degree Days 0 0  
Month to date heating degree days 2 8  
Since 1 June heating degree days 37 91  
Since 1 July heating degree days 2 8  
Cooling Degree Days 8 6  
Month to date cooling degree days 126 113  
Year to date cooling degree days 277 183  
Since 1 June cooling degree days 248 163  
Growing Degree Days 22 (Base 50)    
Moisture  
Dew Point 47 °F    
Average Humidity 47    
Maximum Humidity 72    
Minimum Humidity 21    
Precipitation  
Precipitation 0.00 in 0.01 in 0.58 in (1993)
Month to date precipitation 0.02 0.33  
Year to date precipitation 21.69 19.09  
Sea Level Pressure  
Sea Level Pressure 30.03 in    
Wind  
Wind Speed 5 mph (North)    
Max Wind Speed 16 mph    
Max Gust Speed 22 mph    
Visibility 10 miles    
Events      
T = Trace of Precipitation, MM = Missing Value Source: NWS Daily Summary

Daily Weather History Graph

Daily Weather History Graph

Search for Another Location

Airport or City:

Astronomy

Jul. 22, 2019 Rise Set
Actual Time 5:53 AM PDT 8:45 PM PDT
Civil Twilight 5:19 AM PDT 9:19 PM PDT
Nautical Twilight 4:37 AM PDT 10:01 PM PDT
Astronomical Twilight 3:47 AM PDT 10:51 PM PDT
Moon No Moon Rise 11:23 AM PDT (7/22)
Length of Visible Light 15h 59m
Length of Day
14h 52m
Waning Gibbous, 71% of the Moon is Illuminated
Jul 22
Waning Gibbous
Jul 24
Last Quarter
Jul 31
New
Aug 7
First Quarter
Aug 15
Full

Hourly Weather History & Observations

Time (PDT) Temp. Dew Point Humidity Pressure Visibility Wind Dir Wind Speed Gust Speed Precip Events Conditions
12:53 AM 66.9 °F 50.0 °F 54% 30.00 in 10.0 mi NNW 3.5 mph - N/A   Clear
1:53 AM 64.0 °F 50.0 °F 60% 30.01 in 10.0 mi Calm Calm - N/A   Clear
2:53 AM 62.1 °F 50.0 °F 65% 30.01 in 10.0 mi NNE 3.5 mph - N/A   Clear
3:53 AM 61.0 °F 48.9 °F 64% 30.02 in 10.0 mi North 3.5 mph - N/A   Clear
4:53 AM 59.0 °F 48.9 °F 69% 30.03 in 10.0 mi Calm Calm - N/A   Clear
5:53 AM 57.0 °F 48.0 °F 72% 30.04 in 10.0 mi Calm Calm - N/A   Clear
6:53 AM 57.0 °F 48.9 °F 74% 30.06 in 10.0 mi Calm Calm - N/A   Clear
7:53 AM 62.1 °F 48.9 °F 62% 30.06 in 10.0 mi NNW 3.5 mph - N/A   Clear
8:53 AM 64.9 °F 48.0 °F 54% 30.06 in 10.0 mi Calm Calm - N/A   Clear
9:53 AM 68.0 °F 48.9 °F 50% 30.06 in 10.0 mi Calm Calm - N/A   Clear
10:53 AM 71.1 °F 48.0 °F 44% 30.06 in 10.0 mi Calm Calm - N/A   Clear
11:53 AM 75.9 °F 48.0 °F 37% 30.05 in 10.0 mi Calm Calm - N/A   Clear
12:53 PM 79.0 °F 44.1 °F 29% 30.04 in 10.0 mi Variable 5.8 mph - N/A   Clear
1:53 PM 82.9 °F 39.9 °F 22% 30.02 in 10.0 mi Variable 3.5 mph - N/A   Clear
2:53 PM 84.9 °F 43.0 °F 23% 30.00 in 10.0 mi NNE 10.4 mph - N/A   Clear
3:53 PM 87.1 °F 43.0 °F 21% 29.99 in 10.0 mi NNW 8.1 mph - N/A   Clear
4:53 PM 88.0 °F 44.1 °F 22% 29.98 in 10.0 mi North 10.4 mph - N/A   Clear
5:53 PM 87.1 °F 46.0 °F 24% 29.98 in 10.0 mi NNW 8.1 mph 19.6 mph N/A   Clear
6:53 PM 82.9 °F 48.0 °F 29% 29.99 in 10.0 mi NW 10.4 mph 18.4 mph N/A   Clear
7:53 PM 79.0 °F 50.0 °F 36% 30.00 in 10.0 mi NW 10.4 mph - N/A   Clear
8:53 PM 75.9 °F 48.0 °F 37% 30.02 in 10.0 mi North 9.2 mph - N/A   Clear
9:53 PM 73.0 °F 46.9 °F 39% 30.04 in 10.0 mi North 6.9 mph - N/A   Clear
10:53 PM 70.0 °F 48.0 °F 46% 30.05 in 10.0 mi NNE 6.9 mph - N/A   Clear
11:53 PM 66.9 °F 48.9 °F 52% 30.06 in 10.0 mi North 4.6 mph - N/A   Clear